[[{"header":{"parameterUnit":"m.s-1","parameterCategory":1,"la1":30.2991,"la2":30.254,"lo1":-89.0895,"lo2":-89.0444,"dy":0.0017,"dx":0.0017,"nx":28,"ny":28,"refTime":"2025-05-21T09:00:00:Z","depth":0,"parameterNumber":2,"parameterNumberName":"U-component_of_WINDS"},"data":[0,0,0,0,0,0,0,0,0,0,0,0,0,0,0,0,0,0,0,0,0,0,0,0,0,0,0,0,0,0,0,0,0,0,0,0,0,0,0,0,0,0,0,0,0,0,0,0,0,0,0,0,0,0,0,0,0,0,0.7046,0.7048,0,0.7228,0.723,0.7232,0.725,0.7249,0.7247,0.7245,0.7439,0.7446,0.7453,0,0,0,0,0,0,0,0,0,0,0,0,0,0.6724,0.673,0.7046,0.7048,0.705,0.7228,0.723,0.7233,0.7251,0.7248,0.7246,0.7244,0.7437,0.7445,0.7454,0,0,0,0,0,0,0,0,0,0,0,0,0,0.6881,0.6732,0.7045,0.7081,0.7085,0.7227,0.723,0.7233,0.7251,0.7248,0.7246,0.7243,0.7434,0.7444,0.7455,0.7576,0,0,0.7487,0.7491,0,0,0,0,0,0,0,0,0.6872,0.6893,0.7073,0.7078,0.7084,0.7213,0.7188,0.7349,0.7252,0.7189,0.7245,0.7241,0.7367,0.7383,0.7423,0.7585,0.7594,0.7487,0.7494,0.7498,0.7501,0,0,0,0,0,0,0,0.6861,0.6885,0.7118,0.7076,0.7083,0.7091,0.711,0.7219,0.7292,0.7194,0.7196,0.7217,0.737,0.7413,0.7428,0.7597,0.7487,0.7496,0.7503,0.7507,0.7874,0.7877,0,0,0,0,0,0,0.6842,0.6876,0.7112,0.7124,0.6969,0.7099,0.712,0.7175,0.7291,0.7305,0.7219,0.7217,0.7397,0.7416,0.7435,0.7589,0.7498,0.7508,0.7514,0.7871,0.7875,0.7879,0,0,0,0,0,0,0.6835,0.6863,0.7105,0.7,0.7032,0.7107,0.7169,0.718,0.7224,0.7309,0.7323,0.7249,0.7395,0.742,0.7542,0.7596,0.7513,0.7522,0.7866,0.7872,0.7877,0.7896,0,0,0,0,0,0,0.6826,0.6861,0.6905,0.7001,0.7037,0.7206,0.7172,0.7186,0.7241,0.724,0.7342,0.7356,0.7395,0.7526,0.7552,0.7609,0.753,0.7862,0.7869,0.7875,0.7891,0.7901,0.791,0,0,0,0,0,0.6814,0.6903,0.6907,0.6935,0.7094,0.7208,0.723,0.727,0.7245,0.7292,0.7348,0.7353,0.7585,0.7538,0.7568,0.7629,0.7859,0.7867,0.7875,0.7886,0.7899,0.791,0,0,0,0,0,0,0.6813,0.6916,0.6922,0.7043,0.7117,0.7211,0.7272,0.7281,0.7365,0.7361,0.7411,0.7434,0.7555,0.7604,0.7549,0.7756,0.772,0.7734,0.7719,0.7732,0.7741,0.7728,0.7539,0,0,0,0,0,0.6827,0.6908,0.6995,0.7095,0.7131,0.7195,0.7247,0.7272,0.7351,0.7383,0.7447,0.7527,0.7618,0.7677,0.7766,0.7897,0.7923,0.7954,0.7964,0.7971,0.7984,0.8063,0.8079,0.7904,0.7904,0.7904,0,0,0.6856,0.6923,0.6972,0.7097,0.7156,0.7244,0.7221,0.7314,0.7381,0.7398,0.7517,0.7567,0.7659,0.7788,0.7848,0.7832,0.8038,0.7981,0.7986,0.7995,0.8072,0.8089,0.8104,0.791,0.7909,0.7908,0,0,0.6956,0.7012,0.7103,0.7164,0.7255,0.7297,0.7319,0.7413,0.7447,0.7566,0.7583,0.7665,0.7819,0.7886,0.794,0.8069,0.8078,0.8096,0.8147,0.8223,0.8237,0.825,0.83,0.8317,0.8108,0.8108,0.8108,0,0.6982,0.7111,0.715,0.7243,0.73,0.7318,0.7414,0.7471,0.7587,0.7628,0.7608,0.7806,0.7869,0.8016,0.8048,0.8089,0.812,0.8085,0.8231,0.8244,0.8257,0.8306,0.8324,0.811,0.811,0.8109,0.8109,0,0.7141,0.7231,0.7294,0.7405,0.7469,0.7562,0.7619,0.768,0.77,0.7746,0.7871,0.7948,0.8054,0.809,0.8111,0.8242,0.823,0.822,0.8187,0.8275,0.8322,0.834,0.8112,0.8112,0.8111,0.8111,0,0,0.7244,0.7376,0.7399,0.7451,0.7554,0.7627,0.7724,0.7826,0.7879,0.7959,0.8045,0.8178,0.817,0.8232,0.8261,0.8327,0.8431,0.8311,0.8314,0.8334,0.8585,0.8594,0.8615,0.8437,0.844,0.8443,0.8579,0,0.7358,0.7528,0.7567,0.7715,0.7802,0.7822,0.7908,0.7982,0.8029,0.8112,0.8164,0.8259,0.824,0.8278,0.8344,0.8404,0.8483,0.8394,0.8522,0.8526,0.8501,0.8639,0.8648,0.8772,0.8597,0.86,0.8602,0,0.7513,0.7596,0.7752,0.7847,0.7885,0.7961,0.806,0.8138,0.8225,0.8255,0.8325,0.8348,0.8455,0.8414,0.8565,0.8504,0.8559,0.8597,0.8603,0.8619,0.8571,0.8662,0.8812,0.8832,0.8631,0.8629,0.8627,0,0.7577,0.7728,0.7842,0.7886,0.7999,0.8053,0.8103,0.8187,0.8247,0.8336,0.8377,0.8476,0.8532,0.8611,0.8663,0.8627,0.8811,0.8773,0.8843,0.8842,0.8883,0.888,0.9047,0.8912,0.8912,0.8912,0.8911,0,0.7702,0.7798,0.7873,0.7944,0.8054,0.81,0.8209,0.826,0.8335,0.8419,0.8443,0.8522,0.8584,0.8674,0.8715,0.8837,0.886,0.8891,0.8902,0.8891,0.8887,0.8929,0.8924,0.8917,0.8916,0.8915,0.8914,0,0.7793,0.7847,0.7973,0.807,0.8097,0.8175,0.826,0.8332,0.8379,0.8486,0.8514,0.859,0.8696,0.8755,0.8889,0.8917,0.9055,0.9059,0.9025,0.903,0.9098,0.9092,0.9301,0.9333,0.9173,0.9174,0.9175,0,0.7871,0.7945,0.805,0.8107,0.8158,0.825,0.8312,0.8362,0.8427,0.8534,0.8594,0.8701,0.879,0.8961,0.9031,0.9135,0.9144,0.921,0.916,0.9149,0.9151,0.9147,0.9157,0.922,0.9221,0.9222,0.9223,0,0.8004,0.8028,0.8114,0.8213,0.8286,0.8366,0.8445,0.8492,0.8556,0.8628,0.8736,0.8805,0.8943,0.9052,0.9162,0.9218,0.9234,0.9238,0.9261,0.9252,0.9231,0.9248,0.9052,0.9234,0.9233,0.9232,0.9231,0.9231,0.8094,0.8163,0.8248,0.8346,0.8411,0.8486,0.8559,0.8616,0.8707,0.8821,0.8846,0.8962,0.9053,0.9202,0.9262,0.9356,0.9344,0.9375,0.9384,0.9392,0.9397,0.9213,0.9376,0.9376,0.9375,0.9375,0.9375,0,0.8232,0.8289,0.8378,0.8488,0.8567,0.8571,0.8661,0.8727,0.8828,0.891,0.8997,0.9125,0.9231,0.931,0.942,0.9481,0.9491,0.9508,0.9506,0.952,0.9399,0.937,0.9498,0.9498,0.9498,0.9498,0.9498,0.9498,0.8313,0.8431,0.8466,0.8619,0.8676,0.8787,0.8839,0.891,0.8976,0.9117,0.9204,0.9254,0.9337,0.9453,0.9553,0.9574,0.9615,0.9632,0.9655,0.9541,0.9528,0.9515,0.9489,0.964,0.964,0.9769,0.977,0.9771]},{"header":{"parameterUnit":"m.s-1","parameterCategory":1,"la1":30.2991,"la2":30.254,"lo1":-89.0895,"lo2":-89.0444,"dy":0.0017,"dx":0.0017,"nx":28,"ny":28,"refTime":"2025-05-21T09:00:00:Z","depth":0,"parameterNumber":3,"parameterNumberName":"V-component_of_WINDS"},"data":[0,0,0,0,0,0,0,0,0,0,0,0,0,0,0,0,0,0,0,0,0,0,0,0,0,0,0,0,0,0,0,0,0,0,0,0,0,0,0,0,0,0,0,0,0,0,0,0,0,0,0,0,0,0,0,0,0,0,-1.624,-1.624,0,-1.6204,-1.6204,-1.6203,-1.6276,-1.6278,-1.6281,-1.6283,-1.6239,-1.6236,-1.6233,0,0,0,0,0,0,0,0,0,0,0,0,0,-1.6366,-1.6363,-1.624,-1.624,-1.6239,-1.6204,-1.6204,-1.6203,-1.6276,-1.6279,-1.6281,-1.6284,-1.624,-1.6236,-1.6232,0,0,0,0,0,0,0,0,0,0,0,0,0,-1.6319,-1.6362,-1.624,-1.6271,-1.6274,-1.6204,-1.6204,-1.6203,-1.6275,-1.6279,-1.6282,-1.6286,-1.6242,-1.6237,-1.6232,-1.6128,0,0,-1.6216,-1.6214,0,0,0,0,0,0,0,0,-1.6321,-1.6314,-1.6267,-1.6269,-1.6272,-1.6249,-1.6232,-1.6178,-1.6274,-1.6274,-1.6283,-1.6287,-1.6239,-1.6234,-1.6219,-1.6126,-1.6124,-1.6216,-1.6213,-1.621,-1.6209,0,0,0,0,0,0,0,-1.6324,-1.6316,-1.6226,-1.6266,-1.6269,-1.6285,-1.6283,-1.6222,-1.6237,-1.6275,-1.628,-1.6275,-1.6241,-1.6224,-1.6219,-1.6124,-1.6216,-1.6211,-1.6208,-1.6206,-1.5945,-1.5942,0,0,0,0,0,0,-1.6325,-1.6318,-1.6227,-1.6225,-1.6306,-1.628,-1.6277,-1.6252,-1.6238,-1.6239,-1.6272,-1.6278,-1.6231,-1.6225,-1.6218,-1.6097,-1.621,-1.6206,-1.6203,-1.5949,-1.5944,-1.594,0,0,0,0,0,0,-1.6327,-1.6316,-1.6228,-1.6273,-1.6263,-1.6274,-1.6246,-1.6249,-1.6233,-1.6236,-1.6238,-1.6253,-1.6234,-1.6225,-1.6151,-1.6096,-1.6203,-1.6199,-1.5954,-1.5948,-1.5942,-1.5853,0,0,0,0,0,0,-1.633,-1.6316,-1.6278,-1.6272,-1.626,-1.6163,-1.6242,-1.6246,-1.6225,-1.6233,-1.6218,-1.6219,-1.6236,-1.6158,-1.6146,-1.6091,-1.6195,-1.5959,-1.5951,-1.5944,-1.5861,-1.5845,-1.5831,0,0,0,0,0,-1.6335,-1.6252,-1.6276,-1.6264,-1.6213,-1.616,-1.6153,-1.6176,-1.622,-1.6181,-1.6183,-1.6219,-1.6104,-1.615,-1.6137,-1.6079,-1.5962,-1.5953,-1.5945,-1.5867,-1.5848,-1.5831,0,0,0,0,0,0,-1.6249,-1.6252,-1.6278,-1.6192,-1.6175,-1.6172,-1.6124,-1.6155,-1.6124,-1.6132,-1.616,-1.6156,-1.6077,-1.6071,-1.6121,-1.5979,-1.604,-1.6029,-1.5986,-1.5967,-1.5953,-1.5956,-1.619,0,0,0,0,0,-1.6221,-1.6179,-1.6183,-1.6107,-1.6098,-1.6112,-1.609,-1.6109,-1.6092,-1.6085,-1.6082,-1.6062,-1.6022,-1.5994,-1.5957,-1.5861,-1.5858,-1.5815,-1.58,-1.5788,-1.5777,-1.5726,-1.5707,-1.5912,-1.5912,-1.5912,0,0,-1.616,-1.6157,-1.6129,-1.6089,-1.6079,-1.6034,-1.6105,-1.6054,-1.6021,-1.6077,-1.6008,-1.6004,-1.5984,-1.5899,-1.5861,-1.5891,-1.572,-1.5777,-1.5767,-1.5763,-1.5715,-1.5696,-1.5678,-1.5906,-1.5907,-1.5908,0,0,-1.6028,-1.6021,-1.5958,-1.5947,-1.5932,-1.5942,-1.5927,-1.592,-1.5921,-1.5852,-1.5894,-1.5853,-1.5783,-1.5768,-1.5751,-1.5615,-1.5647,-1.5602,-1.5524,-1.5474,-1.5458,-1.5444,-1.5395,-1.5378,-1.5591,-1.5591,-1.5591,0,-1.5954,-1.589,-1.592,-1.5867,-1.5849,-1.5901,-1.5835,-1.5823,-1.5795,-1.578,-1.5815,-1.573,-1.572,-1.5632,-1.5599,-1.5584,-1.5566,-1.5603,-1.5458,-1.5444,-1.5431,-1.5386,-1.5367,-1.5586,-1.5587,-1.5587,-1.5588,0,-1.5801,-1.5756,-1.5706,-1.5681,-1.5657,-1.5598,-1.5617,-1.5589,-1.5611,-1.5618,-1.5548,-1.5538,-1.5501,-1.5482,-1.5501,-1.5396,-1.5416,-1.5454,-1.5516,-1.5406,-1.5364,-1.5346,-1.5578,-1.558,-1.5582,-1.5583,0,0,-1.5611,-1.5607,-1.5587,-1.5578,-1.5566,-1.5531,-1.5474,-1.544,-1.5415,-1.5395,-1.5347,-1.5288,-1.5324,-1.5305,-1.5323,-1.528,-1.5174,-1.5324,-1.5324,-1.5296,-1.5058,-1.5029,-1.5008,-1.5195,-1.5192,-1.519,-1.506,0,-1.5481,-1.5386,-1.5412,-1.5317,-1.5275,-1.5325,-1.5276,-1.5262,-1.5267,-1.5232,-1.5236,-1.5194,-1.5245,-1.5234,-1.5193,-1.5195,-1.5126,-1.5205,-1.515,-1.5148,-1.5153,-1.4986,-1.4955,-1.4832,-1.5043,-1.504,-1.5038,0,-1.5315,-1.5292,-1.5193,-1.519,-1.5173,-1.5129,-1.5101,-1.5067,-1.5052,-1.5059,-1.5039,-1.5067,-1.501,-1.5073,-1.4994,-1.5048,-1.5027,-1.5025,-1.502,-1.5015,-1.5086,-1.4976,-1.4794,-1.4775,-1.5012,-1.5014,-1.5016,0,-1.5187,-1.513,-1.5065,-1.5054,-1.5049,-1.5017,-1.5012,-1.5002,-1.4981,-1.4955,-1.4942,-1.4909,-1.4891,-1.4864,-1.4883,-1.4927,-1.4801,-1.4866,-1.4804,-1.4803,-1.4774,-1.4775,-1.4585,-1.4761,-1.4761,-1.4762,-1.4762,0,-1.5038,-1.4975,-1.5007,-1.4966,-1.4898,-1.4929,-1.4859,-1.4861,-1.4851,-1.4811,-1.4851,-1.4811,-1.4838,-1.4801,-1.4814,-1.4747,-1.4738,-1.4741,-1.4745,-1.4737,-1.4737,-1.4723,-1.4732,-1.4757,-1.4758,-1.4759,-1.476,0,-1.4882,-1.4902,-1.4833,-1.4835,-1.4834,-1.4783,-1.4784,-1.4746,-1.4755,-1.4703,-1.4693,-1.4706,-1.4664,-1.468,-1.4634,-1.4644,-1.4558,-1.4574,-1.4564,-1.4567,-1.4505,-1.451,-1.4299,-1.4273,-1.4466,-1.4464,-1.4462,0,-1.4786,-1.4739,-1.4737,-1.4715,-1.4709,-1.4671,-1.465,-1.4678,-1.4655,-1.4637,-1.46,-1.4563,-1.4534,-1.4464,-1.4469,-1.4434,-1.4449,-1.4377,-1.4444,-1.4438,-1.4448,-1.445,-1.4446,-1.4363,-1.4361,-1.4359,-1.4358,0,-1.4612,-1.4625,-1.4595,-1.4568,-1.4543,-1.4523,-1.4506,-1.4485,-1.4512,-1.4484,-1.4443,-1.4421,-1.4377,-1.4338,-1.4308,-1.4302,-1.4334,-1.4338,-1.4321,-1.4312,-1.4308,-1.431,-1.4527,-1.4342,-1.4343,-1.4345,-1.4345,-1.4346,-1.4483,-1.4445,-1.4438,-1.4404,-1.4395,-1.4379,-1.4344,-1.435,-1.4317,-1.4285,-1.4304,-1.4256,-1.4244,-1.4207,-1.4197,-1.4159,-1.4187,-1.4163,-1.4157,-1.4151,-1.4143,-1.4315,-1.4153,-1.4154,-1.4154,-1.4155,-1.4155,0,-1.4311,-1.4311,-1.4279,-1.4256,-1.4229,-1.4265,-1.4248,-1.4222,-1.4181,-1.4169,-1.4141,-1.4094,-1.4058,-1.406,-1.4027,-1.3996,-1.401,-1.3986,-1.3988,-1.3986,-1.412,-1.4137,-1.3976,-1.3976,-1.3976,-1.3976,-1.3976,-1.3976,-1.4219,-1.4157,-1.4169,-1.4102,-1.4101,-1.4057,-1.4045,-1.403,-1.4021,-1.3968,-1.3939,-1.3942,-1.3935,-1.3902,-1.387,-1.3872,-1.3857,-1.3828,-1.3834,-1.3959,-1.3977,-1.3994,-1.401,-1.3824,-1.3824,-1.3704,-1.3703,-1.3702]}]]